Wind_Speed
7 7 7 7 8 8 9 9 10 11 11 12 12 12 12 13 14 15 15 16 16 17 17 17 17 16 16 15 15 16 17 18 20 22 24 26 27 27 27 28 29 29 30 30 31 32 32 33 34 34 35 35 35 35 36 36 37 37 38 40 42 43 44 45 43 42 43 44 45 44 44 44 44 44 45 46 46 46 47 49 50 49 47 46 48 49 45
7 7 7 8 8 9 9 10 10 11 11 11 12 12 13 14 15 15 15 16 16 16 16 15 15 15 15 15 16 18 19 21 23 25 26 27 27 27 27 28 29 30 30 31 32 33 33 34 34 35 35 35 35 35 36 36 37 38 39 41 43 44 45 46 46 45 45 46 45 44 43 43 43 44 45 46 46 47 47 48 50 50 48 48 51 51 48
8 8 8 8 8 9 9 10 10 10 11 12 12 13 14 15 15 15 15 15 15 15 15 14 15 15 16 17 19 21 22 24 25 26 27 27 27 28 29 29 31 31 32 33 33 34 35 35 35 35 35 35 35 36 36 37 38 40 41 43 43 43 44 45 47 48 49 49 48 46 45 44 42 42 45 46 46 46 47 48 50 50 49 49 50 53 52
7 7 7 8 8 9 9 9 10 11 11 12 13 14 14 14 15 14 14 15 15 14 14 14 15 17 18 20 21 23 24 26 27 27 28 28 29 30 30 31 32 32 33 34 34 35 36 36 36 36 35 35 36 36 37 39 40 41 42 43 42 42 43 45 46 46 47 49 48 47 47 46 44 43 44 47 48 47 48 50 51 52 52 51 50 53 56
7 7 7 7 8 9 9 10 11 12 12 13 13 13 14 15 15 14 14 15 15 14 15 16 17 19 21 22 24 25 26 28 28 29 30 30 31 31 32 33 33 34 35 35 36 37 37 37 36 36 36 36 37 38 39 40 41 42 42 42 42 43 44 45 46 46 46 48 49 48 48 48 47 48 49 50 51 51 52 53 55 56 57 56 54 55 57
6 7 7 8 9 9 10 11 11 12 13 13 12 13 14 15 14 14 15 15 15 16 17 18 20 21 23 25 26 28 29 30 30 31 31 32 32 33 34 35 36 37 37 38 38 38 37 36 36 36 36 37 38 39 40 40 41 42 43 43 43 45 46 47 47 47 47 50 51 51 51 51 51 52 54 55 56 56 56 57 58 59 61 62 61 61 61
6 7 8 8 9 10 11 11 12 13 13 12 11 12 14 14 14 15 15 16 16 17 19 20 22 23 25 28 30 31 32 32 32 33 33 34 35 35 36 37 38 39 39 39 39 39 38 38 38 38 38 39 39 40 40 41 42 43 44 45 46 47 48 49 50 50 49 50 53 54 55 55 55 54 56 59 59 59 59 59 60 62 64 65 65 66 65
7 7 8 9 10 11 11 12 12 12 11 10 11 13 14 13 14 15 16 17 17 19 21 22 24 26 29 31 33 34 34 34 34 34 35 36 36 37 38 39 39 39 39 39 40 40 40 40 40 40 40 40 40 40 41 42 43 45 46 47 48 49 50 51 53 54 52 52 55 57 58 59 58 56 57 60 61 61 61 62 62 65 66 66 66 68 68
7 7 8 9 10 11 11 11 11 10 10 12 13 14 13 14 15 16 16 17 19 21 23 25 28 31 33 34 35 35 35 35 35 36 37 37 38 38 39 39 39 39 39 40 41 41 41 41 41 40 40 40 41 41 42 43 44 46 47 48 50 51 52 53 55 58 57 56 57 60 60 60 59 57 58 60 61 61 62 63 64 66 68 67 67 69 70
6 7 8 9 9 9 9 9 10 11 13 14 13 12 13 14 15 16 17 18 21 24 27 29 31 34 35 36 36 36 36 37 37 38 38 39 39 39 39 39 39 40 40 41 42 41 41 40 40 40 40 40 41 42 43 45 46 48 49 50 52 53 55 56 58 60 61 59 61 62 63 62 60 58 58 58 59 62 64 65 66 68 69 68 69 71 72
5 6 7 8 8 9 9 10 12 13 13 13 11 11 13 14 15 17 19 22 25 27 30 32 34 35 36 36 36 37 37 38 38 39 39 39 39 39 39 40 40 41 41 42 41 40 39 39 39 39 40 40 41 42 44 46 48 50 51 53 54 55 57 58 60 62 63 62 64 65 64 64 62 57 55 58 61 64 67 69 69 69 68 68 71 73 74
5 6 6 7 8 9 10 11 12 12 11 10 11 12 14 15 17 19 22 25 28 30 33 34 35 36 36 37 37 38 38 38 39 38 38 38 38 39 39 40 41 41 41 40 39 39 38 38 39 39 40 41 42 44 46 48 50 51 53 54 55 56 58 59 60 63 64 65 67 68 67 66 63 58 58 63 66 67 69 71 71 69 68 72 75 77 78
4 5 6 7 8 9 10 10 10 10 10 11 12 14 16 18 20 22 25 28 31 33 34 35 35 36 36 37 37 37 38 38 38 37 37 38 38 38 39 40 40 41 40 39 38 38 38 38 39 39 40 42 44 46 48 50 51 52 53 55 56 57 59 60 61 63 65 67 69 69 69 68 63 61 64 69 70 71 72 73 72 70 72 77 80 81 81
3 4 5 7 8 8 9 9 9 10 11 12 14 16 18 20 23 26 29 31 33 34 35 35 35 35 35 36 37 37 37 37 37 37 37 37 38 38 39 39 39 39 39 38 38 38 39 39 40 41 42 44 46 48 50 51 52 53 54 55 56 58 59 60 63 65 66 68 70 70 71 71 66 65 69 72 73 73 74 75 75 75 77 80 83 83 83
3 4 6 6 7 8 8 9 10 11 13 14 16 18 21 23 26 29 31 32 33 34 34 33 34 34 35 36 36 37 37 37 37 37 37 37 37 38 38 38 39 38 38 39 39 40 41 42 43 45 46 48 50 51 52 53 53 54 55 56 57 58 60 62 64 66 67 69 71 72 74 73 70 69 73 75 74 74 74 75 77 79 80 82 83 84 85
3 4 5 6 7 8 9 10 11 13 15 17 19 21 24 26 29 31 32 33 32 32 32 32 33 33 35 36 36 36 36 36 36 36 36 36 37 37 38 38 38 39 39 40 41 41 42 44 46 48 50 51 53 54 55 55 55 55 56 57 59 60 61 64 66 67 67 69 71 73 74 74 73 74 76 76 75 76 76 78 80 82 83 84 85 87 89
3 4 6 7 8 9 10 12 13 15 17 19 22 24 26 29 31 31 31 31 31 30 30 31 32 34 35 35 35 36 36 37 37 36 36 37 37 38 39 40 40 41 41 42 42 43 44 46 48 50 51 52 54 55 56 57 57 57 57 59 60 62 64 66 66 67 68 69 72 74 74 74 76 78 79 79 79 79 79 81 84 87 88 89 90 90 90
3 5 6 8 9 11 12 13 15 17 19 21 24 26 28 30 30 30 30 29 29 28 29 31 32 34 35 35 36 37 38 38 38 38 38 39 40 41 42 42 43 43 43 43 44 45 46 48 50 52 53 53 55 56 57 59 59 58 59 61 62 63 65 67 66 67 68 70 73 74 73 75 79 80 80 82 82 80 80 83 88 91 90 90 90 90 90
4 6 7 9 11 12 13 15 17 19 22 24 26 28 29 30 29 28 28 27 27 27 29 31 33 34 35 36 37 38 39 39 39 40 40 41 42 43 44 44 44 44 45 45 45 47 49 50 52 54 54 55 57 57 58 60 60 60 61 64 64 65 66 67 67 68 69 71 72 72 74 77 80 80 82 84 83 83 85 88 90 90 88 87 88 89 90
4 7 9 10 11 13 15 17 19 22 24 26 28 29 30 29 28 28 27 26 26 27 29 31 33 34 35 36 37 38 39 40 40 40 41 42 43 44 45 45 45 45 45 46 47 49 51 52 53 55 55 57 59 59 59 60 60 60 63 66 66 66 67 68 69 69 70 71 72 75 79 82 83 84 86 87 86 85 87 89 88 88 87 87 87 88 90
5 8 10 11 13 15 17 20 22 24 26 28 30 30 30 28 28 28 26 26 27 29 30 31 33 34 36 37 37 38 39 39 40 40 41 43 43 44 45 45 45 45 46 47 48 50 52 53 54 55 56 58 60 60 61 63 62 62 64 66 67 67 68 70 71 71 71 74 76 79 83 85 86 88 89 89 87 86 86 88 89 89 90 90 91 93 95
7 9 11 13 15 18 21 23 25 27 29 31 31 30 29 28 28 28 27 27 28 30 31 32 33 34 35 36 37 38 39 39 40 41 42 43 44 44 45 45 45 45 46 48 49 51 52 53 54 56 57 59 61 61 62 64 65 65 66 67 68 69 69 71 73 73 74 77 79 82 85 86 88 89 90 91 91 91 91 92 92 93 94 95 97 98 99
8 10 12 15 18 21 23 26 28 30 32 32 32 30 30 29 29 29 28 28 30 31 32 33 33 34 35 36 37 38 39 40 41 42 43 43 44 44 44 44 45 45 47 48 50 51 52 53 54 57 58 60 62 62 62 64 65 66 68 69 69 70 70 72 75 77 78 79 80 82 85 86 88 89 90 93 94 96 97 98 99 100 100 100 100 99 99
10 12 14 17 20 23 25 27 30 32 33 33 32 31 31 30 30 30 30 30 31 32 33 33 34 34 35 36 37 39 39 41 42 43 43 44 44 44 44 44 45 46 47 49 50 52 53 54 55 58 59 60 62 63 63 65 66 67 69 70 69 70 72 74 77 79 81 82 83 84 86 87 90 92 94 95 97 98 100 102 102 102 102 101 100 99 99
11 13 15 18 21 23 26 29 31 33 34 34 34 33 32 31 32 32 32 32 33 33 35 35 35 36 37 37 39 40 41 42 43 44 44 45 45 44 45 45 46 47 48 50 51 52 54 55 56 58 59 60 62 63 64 66 68 69 71 73 72 73 76 78 80 81 83 85 86 88 88 89 91 94 97 99 101 102 103 104 104 103 103 101 99 96 94
12 14 17 19 22 24 27 30 32 34 35 35 35 34 33 33 33 33 34 35 35 35 36 37 37 38 39 40 40 41 43 44 44 45 45 45 45 45 45 45 46 48 49 51 52 54 55 56 57 59 60 61 63 64 64 66 68 70 72 74 75 78 80 82 84 84 85 87 89 91 93 94 94 96 99 102 105 106 106 106 105 103 101 99 95 90 85
13 15 18 20 23 25 28 31 33 35 36 36 36 35 35 35 35 35 35 36 37 37 38 38 39 40 41 41 42 43 44 45 45 45 46 46 46 46 46 46 47 49 50 52 53 54 55 56 58 59 60 62 64 65 65 67 69 71 73 74 77 80 82 85 87 88 90 92 94 97 101 102 103 103 105 106 106 106 106 105 103 100 96 92 87 81 76
14 17 19 21 23 26 29 31 34 37 38 38 37 37 36 36 36 36 36 37 38 39 39 40 41 41 42 43 44 44 45 45 46 46 46 46 47 47 47 47 48 50 51 53 54 54 55 57 59 59 61 63 65 66 67 69 71 73 75 77 79 82 85 87 90 93 95 96 98 100 103 106 107 107 107 106 105 104 104 102 98 93 88 82 77 73 72
15 18 19 22 24 26 29 32 35 37 39 39 39 38 38 37 37 37 38 38 39 40 40 41 42 43 43 44 44 45 45 45 45 46 46 47 47 47 48 48 49 51 52 54 54 55 56 58 59 60 62 64 67 68 69 71 73 75 77 80 82 85 87 89 92 95 98 99 101 102 105 107 107 107 107 106 104 102 100 95 89 83 77 72 69 70 71
17 18 20 22 25 27 29 32 35 38 40 40 40 40 40 39 39 39 39 39 40 41 41 42 43 43 44 45 45 45 45 45 45 46 46 47 47 48 48 49 50 51 53 54 54 56 57 58 59 61 63 65 68 70 71 73 74 77 79 82 85 87 89 91 93 97 99 101 103 104 106 107 107 107 106 105 102 98 94 87 80 73 69 67 67 68 70
18 19 21 23 25 27 29 32 36 39 40 41 41 41 41 41 40 40 40 41 42 42 43 43 44 44 44 44 44 44 45 45 45 46 46 47 48 48 48 49 50 52 53 54 55 56 57 59 61 62 64 67 70 71 73 74 76 78 81 84 86 88 90 92 95 98 100 102 104 106 107 107 107 107 106 103 98 92 86 78 71 66 64 64 65 67 69
18 20 22 24 26 28 30 33 37 39 41 42 42 42 42 42 42 42 42 43 43 44 44 44 44 45 45 44 44 45 45 45 45 46 46 47 47 47 48 49 51 52 53 54 56 57 58 60 62 64 66 69 71 72 74 76 78 81 84 86 88 90 92 95 97 99 101 103 105 108 109 109 108 106 103 98 92 84 77 70 65 62 62 63 64 66 67
19 20 22 25 27 29 32 35 38 40 42 43 43 43 43 43 43 43 43 44 45 45 45 45 45 45 45 45 45 45 45 45 45 45 45 46 47 47 48 49 51 53 54 55 57 59 61 63 65 67 69 71 72 73 76 78 81 84 87 89 91 93 95 97 99 100 102 103 105 108 110 109 107 103 97 91 84 76 69 64 62 61 62 63 65 66 66
19 21 23 26 28 31 33 36 38 41 43 44 44 44 43 43 44 44 45 45 46 46 46 46 46 46 45 45 46 45 45 45 45 45 45 46 47 48 49 50 52 53 55 56 58 60 63 65 67 69 71 72 74 75 78 80 83 86 89 91 93 96 97 99 100 102 103 104 106 108 108 107 104 99 92 84 77 70 64 60 60 62 64 65 67 68 68
20 22 24 27 30 32 34 37 39 42 44 45 45 44 44 44 45 45 45 46 47 47 46 46 46 46 46 46 45 45 45 45 46 46 46 47 48 49 50 52 53 54 56 57 59 62 64 67 69 72 73 74 76 78 81 83 86 88 91 93 96 98 100 102 103 104 105 106 107 107 106 104 100 93 86 78 71 65 60 58 60 62 65 68 70 71 69
21 23 26 28 31 33 36 38 40 43 45 46 46 45 45 45 46 46 47 47 47 47 47 46 46 46 46 46 45 45 45 45 46 46 47 48 49 50 51 53 54 56 57 59 61 64 66 68 71 73 74 75 77 80 83 85 88 90 93 96 99 100 102 104 105 106 107 107 107 106 104 100 94 86 79 73 67 61 58 58 60 63 66 69 72 72 70
22 25 27 30 32 35 37 39 41 44 47 48 47 46 46 47 47 47 48 48 48 48 47 47 47 47 47 46 46 45 46 46 46 47 48 50 51 52 54 55 56 57 59 61 63 66 68 70 72 74 75 76 79 82 85 87 90 92 95 98 100 101 103 104 105 106 107 107 106 104 100 94 87 79 75 70 64 60 58 59 61 64 67 70 72 72 69
24 26 29 31 34 36 38 40 42 45 48 49 49 48 48 48 49 49 49 49 49 49 48 48 48 47 47 46 46 46 47 47 48 49 50 51 53 54 56 57 58 59 61 63 65 68 70 72 73 75 75 77 80 83 86 89 91 94 96 98 100 101 103 104 105 106 107 107 105 101 95 88 81 76 73 68 62 58 58 60 61 64 68 71 71 69 66
26 28 30 33 35 38 40 42 44 46 49 50 50 50 50 50 51 51 51 50 50 49 48 48 48 47 46 46 46 47 48 48 49 50 51 53 55 56 57 59 60 61 63 66 68 71 72 73 74 75 77 79 83 86 88 91 93 95 97 98 100 101 103 104 105 105 105 104 101 94 86 79 75 73 71 66 60 57 58 60 63 66 69 70 68 65 62
28 30 32 34 37 39 41 43 45 48 50 52 52 51 51 52 52 52 52 51 51 50 49 49 48 47 47 47 46 47 49 50 50 51 52 54 56 58 59 60 62 64 66 68 71 73 74 75 75 77 79 82 85 88 91 93 94 96 97 98 100 102 103 105 105 104 102 100 95 86 77 72 70 68 67 64 61 60 61 63 65 68 70 68 64 60 58
30 32 34 36 39 41 42 44 46 49 51 53 53 53 53 53 53 53 53 52 52 51 50 49 48 47 48 48 48 48 50 51 52 52 53 55 57 58 60 62 64 66 68 70 73 74 75 76 77 79 81 84 87 90 92 94 95 97 98 100 102 104 106 106 105 102 99 95 88 80 73 69 66 64 62 61 61 61 63 65 67 69 68 64 60 57 55
32 34 36 38 40 42 44 45 47 49 52 55 55 54 54 54 55 54 54 54 53 52 51 49 48 48 48 49 49 50 51 52 52 53 55 56 58 59 61 63 65 67 69 72 74 75 76 77 79 81 83 86 89 91 93 95 97 98 100 102 104 106 107 106 104 100 96 90 82 75 70 66 62 59 59 59 59 60 62 66 68 67 64 60 56 55 54
34 35 37 40 41 43 45 46 48 50 54 56 56 55 54 55 55 56 56 55 54 52 51 49 49 49 49 49 50 51 52 53 54 55 56 58 59 61 63 64 66 68 70 73 74 75 76 78 80 83 85 88 91 93 94 96 98 101 103 104 106 107 108 106 103 99 92 83 76 70 66 62 58 56 56 57 59 61 63 65 66 64 59 55 53 53 54
35 37 39 41 43 45 46 47 49 51 55 56 56 56 55 55 56 57 56 55 53 52 50 49 49 48 49 50 51 52 53 54 55 56 58 59 61 63 64 66 67 69 71 73 75 75 77 78 81 83 86 89 92 93 95 97 100 103 105 106 107 108 108 106 102 95 87 79 72 67 63 59 56 55 55 57 60 63 65 65 63 59 55 52 51 52 53
37 39 41 43 44 46 47 49 50 53 55 57 57 56 56 56 57 58 57 55 53 51 50 49 49 49 49 51 52 53 54 55 56 58 59 60 62 64 66 67 69 70 72 74 75 76 77 78 81 84 88 91 93 95 97 100 103 105 106 108 110 110 109 106 100 91 83 75 69 65 61 58 56 56 57 59 61 63 65 64 61 56 53 51 51 51 52
39 40 43 45 46 47 48 49 51 54 56 58 58 57 56 57 58 58 57 55 53 51 50 49 49 49 50 52 53 54 55 56 57 58 60 62 63 65 67 69 70 72 74 76 77 77 78 80 82 86 90 93 95 97 100 102 104 106 107 109 111 111 109 104 96 87 78 72 67 63 60 58 57 58 59 60 61 63 63 62 58 54 52 52 51 51 52
40 42 45 46 47 48 49 50 52 55 57 58 58 57 57 58 59 58 57 54 52 50 49 49 49 49 50 52 53 54 56 57 58 59 61 63 64 66 68 70 71 73 76 77 78 79 80 82 85 88 92 95 97 99 102 104 106 107 108 110 111 111 108 101 92 83 75 69 64 61 59 58 58 59 60 61 62 63 61 58 54 51 51 51 51 52 52
42 44 46 48 49 50 50 52 54 56 58 58 58 58 58 59 59 58 56 54 51 50 49 49 50 50 51 52 53 55 57 58 59 60 62 64 66 68 69 70 71 73 75 77 79 80 82 84 87 90 94 96 99 101 104 106 108 109 109 110 110 110 107 99 88 79 72 66 63 61 59 59 59 60 61 62 62 60 57 54 52 51 50 50 51 51 52
44 46 47 48 50 51 52 53 56 57 58 59 59 59 59 59 58 57 55 53 51 49 49 50 50 51 52 53 54 56 57 59 60 61 63 66 67 69 70 71 72 74 75 77 79 81 84 86 89 92 95 97 100 103 106 108 109 110 110 109 109 109 105 95 85 76 69 64 61 60 60 60 61 62 62 63 61 57 52 50 50 50 50 50 50 50 50
45 47 48 49 50 51 53 55 57 58 58 59 60 60 59 59 58 56 54 52 50 50 50 50 51 52 53 54 55 57 58 59 61 62 64 66 68 70 71 72 73 75 76 77 79 82 85 88 91 94 96 98 101 104 107 109 109 110 110 109 108 107 102 92 82 73 66 62 60 60 60 61 62 62 62 62 58 53 50 49 50 49 49 49 50 49 49
46 48 49 50 51 52 54 56 57 58 59 60 60 60 59 58 57 55 52 51 50 50 50 51 52 53 54 55 56 57 59 60 61 63 65 67 69 70 71 72 74 76 77 78 80 83 86 90 93 96 97 99 102 106 108 109 109 110 109 109 107 105 99 90 80 71 64 60 58 59 59 60 60 61 60 59 56 53 51 49 48 48 48 49 51 52 51
48 49 50 51 52 53 55 57 58 59 59 60 60 60 59 57 55 53 51 50 50 50 51 52 53 54 55 56 57 58 59 60 62 64 66 68 69 70 71 72 74 77 79 80 82 85 88 91 94 96 98 100 103 107 109 110 110 109 109 109 108 104 97 88 78 69 62 59 58 58 58 58 58 58 57 55 54 53 52 49 46 46 48 50 51 52 50
Wind_Direction
80 73 66 61 56 52 47 43 38 33 29 25 21 18 12 7 4 360 356 355 351 349 350 352 355 358 360 3 6 8 9 5 360 356 353 351 349 346 344 341 339 337 335 334 333 333 333 332 332 331 331 331 332 332 332 333 334 337 338 340 342 341 341 342 341 338 338 340 340 340 340 338 336 333 332 331 329 329 329 327 327 329 329 328 324 324 330
73 67 63 57 51 46 40 35 31 27 24 19 14 9 4 1 357 354 354 352 350 353 360 3 6 7 7 8 9 8 4 358 354 352 349 347 344 341 338 336 335 333 333 332 332 332 333 333 333 332 332 333 333 333 333 335 337 339 340 342 343 342 341 341 340 338 339 341 340 339 340 339 336 334 331 330 327 326 325 324 324 325 325 324 323 321 322
70 64 56 50 44 38 33 29 25 21 16 9 4 2 359 358 356 357 357 354 356 5 9 10 12 10 7 6 5 2 358 354 350 347 344 341 339 336 334 333 332 332 333 333 333 334 334 334 334 333 333 333 333 334 335 337 338 340 341 342 342 341 340 340 340 339 341 342 340 339 339 338 338 336 332 330 328 327 325 324 325 325 323 323 323 321 319
64 57 48 41 36 32 28 22 17 12 6 0 359 358 357 358 0 3 2 1 9 15 13 11 12 6 2 1 359 356 353 348 345 342 339 337 335 333 332 332 332 332 333 334 335 335 335 335 335 334 334 333 334 335 336 337 339 340 340 340 340 339 339 339 339 339 340 339 337 336 336 336 337 335 332 329 327 327 326 326 326 325 322 322 324 321 320
56 48 41 34 29 26 19 13 9 4 359 359 357 356 359 4 7 7 6 9 15 17 11 10 7 0 357 356 354 351 348 345 342 340 337 334 333 332 331 330 331 331 332 334 335 336 336 336 335 335 334 334 335 335 337 338 338 338 337 337 338 337 337 338 337 337 337 336 334 333 332 333 334 333 332 329 326 325 326 326 325 324 322 322 324 322 321
49 43 36 28 24 18 11 8 4 0 1 0 355 358 7 12 11 9 10 13 16 13 8 5 0 356 353 352 351 349 345 342 340 337 335 333 332 331 331 330 331 332 333 334 335 335 336 336 335 335 335 335 336 336 337 337 336 335 335 335 336 335 335 335 335 335 336 334 332 330 330 330 332 332 331 327 325 325 326 325 324 322 320 322 324 322 322
45 38 30 24 18 9 6 5 3 5 6 356 351 5 14 14 12 11 11 12 10 5 2 359 356 353 351 350 348 345 342 341 339 337 335 334 333 332 332 332 333 334 335 335 335 335 336 336 335 335 335 335 336 336 336 336 334 334 333 333 333 333 333 332 331 332 335 333 330 329 328 329 331 331 329 326 325 325 325 324 323 321 320 322 322 321 320
39 31 23 16 9 6 8 8 10 12 2 346 357 14 16 10 11 11 8 5 3 0 359 356 353 350 349 348 345 343 341 340 339 337 337 335 334 334 334 334 335 336 336 336 337 337 337 336 336 336 336 336 336 335 335 334 333 333 332 331 331 331 331 330 328 330 333 332 329 328 328 329 330 331 329 325 324 325 324 323 323 320 320 321 321 319 319
30 23 17 13 11 14 15 14 16 10 353 355 13 19 12 10 10 7 2 0 359 358 356 352 349 348 347 345 343 342 341 340 339 338 338 337 336 336 336 337 337 338 338 338 338 337 337 337 337 337 337 336 335 334 333 333 332 332 331 330 329 329 328 328 326 328 331 331 328 328 328 329 331 331 329 325 324 324 323 322 321 320 319 320 319 317 318
24 19 17 17 18 19 16 13 12 7 5 15 23 16 8 11 7 0 357 356 356 354 351 348 347 346 344 343 342 342 342 341 341 340 339 339 338 338 338 339 340 340 340 339 339 339 338 338 337 337 336 334 333 332 332 332 332 331 330 329 328 328 327 327 326 327 330 330 327 328 329 331 333 333 329 325 323 322 320 320 321 320 320 319 318 316 317
19 15 15 15 15 14 14 14 15 16 21 25 20 7 5 4 358 354 352 352 352 350 347 346 345 344 343 343 343 343 343 343 343 342 341 340 340 340 341 342 342 342 341 341 340 340 339 338 337 336 334 332 332 332 332 332 332 331 330 329 329 328 328 327 326 326 329 329 327 328 331 333 335 334 328 323 321 319 319 321 322 322 321 317 315 315 316
11 9 9 10 11 14 18 20 21 23 25 19 7 2 360 356 351 350 350 349 348 347 346 345 344 344 344 345 345 346 346 345 344 343 342 341 342 343 344 344 343 342 342 342 341 340 339 338 336 334 333 331 332 332 332 332 332 331 331 329 329 329 328 327 326 326 327 328 328 329 331 334 335 331 325 321 321 320 320 322 323 322 319 316 315 316 317
359 1 4 10 16 20 22 22 22 21 16 7 359 356 354 351 349 348 348 347 345 345 345 345 345 346 347 348 349 348 347 346 345 343 343 344 345 346 345 344 343 342 342 341 340 339 338 336 334 333 332 331 331 331 331 332 333 332 331 330 329 329 328 327 327 327 327 328 329 329 330 332 333 329 324 322 322 322 322 323 323 321 318 316 317 318 318
347 358 8 16 21 21 20 20 18 13 6 359 355 352 350 348 347 346 346 345 344 345 345 346 348 350 351 351 350 348 347 346 345 345 346 347 347 346 345 343 343 342 340 339 338 337 336 335 334 333 332 331 330 331 332 333 333 333 332 330 330 329 329 328 328 328 328 328 329 329 329 330 332 328 324 324 325 325 323 322 321 320 319 319 319 318 317
356 8 15 19 19 17 16 14 10 4 358 354 350 347 345 344 344 344 343 344 345 345 347 350 352 353 352 351 350 348 348 348 348 348 348 348 347 345 343 343 341 340 338 337 336 336 335 335 335 334 333 332 332 333 333 334 334 334 332 331 331 330 330 329 328 329 330 329 329 329 329 330 330 326 324 325 326 325 323 321 320 320 320 319 319 317 317
16 17 16 14 13 11 9 5 360 355 350 347 344 342 342 342 342 342 343 344 346 347 351 354 354 352 352 351 350 350 351 351 351 351 349 347 345 343 342 341 340 338 338 337 337 336 336 336 336 335 334 334 333 334 334 334 335 335 333 331 332 331 330 330 330 331 331 330 328 329 330 329 327 325 325 326 326 325 323 319 319 320 320 319 318 317 316
22 13 8 6 5 3 359 355 350 345 342 340 339 339 340 340 341 342 344 346 348 351 354 354 352 352 352 351 351 352 352 352 352 350 348 346 344 343 342 341 340 339 339 338 338 337 337 336 335 335 335 334 333 334 335 335 335 336 334 332 333 332 331 332 332 332 331 329 328 329 328 327 326 326 327 327 327 326 322 318 319 321 320 319 317 316 314
17 5 3 359 356 352 348 344 340 337 336 336 337 338 338 339 341 343 345 349 350 352 353 352 351 351 351 350 350 351 351 351 350 348 347 346 344 343 342 342 341 340 339 338 337 336 336 335 335 335 335 335 334 335 336 336 336 336 334 332 333 332 332 332 332 331 330 329 328 328 327 326 327 327 327 327 327 325 320 318 319 320 319 317 316 314 313
6 360 355 349 345 342 338 335 333 333 334 335 336 336 337 339 342 344 347 350 351 350 350 350 349 349 348 348 348 348 348 347 346 345 345 344 342 341 341 340 340 339 338 337 336 336 336 336 336 335 336 335 335 336 337 337 337 335 333 333 333 332 332 333 333 331 330 329 328 327 326 326 327 327 326 326 326 323 320 320 320 319 316 313 312 311 310
356 348 342 338 335 333 331 331 332 333 334 334 334 335 337 339 343 346 348 349 348 348 348 347 346 346 346 345 345 344 344 343 342 341 340 340 339 338 337 338 337 337 337 337 336 336 337 337 336 336 336 335 335 337 337 337 336 334 333 333 333 333 333 333 332 331 330 329 329 327 327 327 328 326 326 326 325 322 320 318 317 316 313 310 309 307 306
338 333 330 330 330 330 332 333 334 334 334 334 335 336 339 342 345 346 347 346 345 345 345 344 343 343 343 342 341 341 340 339 338 337 336 336 336 335 336 336 336 336 337 336 336 337 337 337 336 336 336 335 336 337 336 335 336 335 333 333 333 333 333 332 331 331 330 330 329 328 327 328 327 326 326 326 324 321 318 316 315 314 312 310 308 308 308
320 322 325 328 330 333 335 336 335 335 336 337 338 340 342 344 345 345 344 343 342 342 341 339 338 338 338 338 338 338 337 336 335 335 334 334 334 335 335 335 335 336 336 336 336 337 337 337 336 336 336 335 335 336 335 334 335 334 334 334 333 334 333 332 331 331 330 329 328 326 325 325 325 325 324 323 321 319 317 315 314 312 311 311 311 311 312
311 319 325 330 334 335 336 336 336 337 339 339 341 343 344 344 343 341 340 339 338 338 336 335 334 334 335 335 335 334 334 333 333 333 333 333 333 333 333 333 334 335 335 335 336 336 336 335 335 335 336 335 335 336 335 334 334 334 334 334 334 334 333 331 330 329 327 325 324 323 322 322 321 321 320 318 317 316 314 313 312 312 312 313 313 313 313
310 321 327 331 334 336 337 338 338 339 341 341 343 344 343 341 339 338 337 337 336 335 333 332 332 332 332 332 332 331 331 331 331 331 331 331 331 331 331 332 333 333 334 335 335 335 335 334 334 335 336 335 335 335 334 334 334 334 333 334 334 333 331 329 327 326 324 323 322 321 321 321 319 318 317 315 314 313 312 312 313 314 315 315 315 315 315
312 322 328 332 335 337 339 340 341 341 342 343 343 343 340 338 337 336 337 336 335 334 333 331 331 330 329 329 330 330 330 330 330 330 330 330 330 330 331 331 332 333 334 334 334 334 334 334 333 334 335 335 335 335 335 334 334 334 333 334 334 332 329 327 325 324 323 322 321 321 320 320 319 317 315 314 313 313 313 314 315 316 317 317 317 318 319
315 323 328 332 335 339 341 341 341 342 342 343 343 341 338 336 336 336 337 336 335 334 333 331 330 329 328 328 329 329 329 329 330 330 330 330 330 330 330 331 332 333 333 333 334 334 334 334 333 334 335 335 335 336 335 335 334 334 334 334 333 331 329 327 325 324 323 322 321 321 320 320 319 317 316 315 315 316 316 317 319 319 319 319 319 321 323
318 324 328 333 337 340 341 341 341 341 341 341 340 338 336 336 335 335 336 336 336 335 333 332 330 329 328 328 329 329 329 329 330 330 330 330 330 330 330 331 332 333 333 333 334 334 333 333 333 334 334 334 335 336 335 334 334 333 333 332 331 329 328 326 325 324 324 323 323 323 322 321 321 319 318 319 319 320 320 321 322 322 321 321 322 325 328
318 323 329 334 338 339 340 340 340 340 339 339 337 336 335 335 334 334 335 335 335 335 333 332 331 330 329 330 329 329 330 330 330 330 329 330 330 330 331 332 332 333 333 333 333 333 333 333 334 334 334 334 334 335 335 334 334 333 333 332 331 329 328 327 326 326 325 325 324 324 322 321 321 321 321 321 322 322 323 323 323 322 322 324 327 329 331
317 323 329 335 337 338 338 338 339 338 338 337 335 334 334 334 333 333 334 334 334 333 333 332 332 331 331 331 330 330 330 329 329 329 329 330 331 331 332 333 333 333 333 333 333 333 333 334 334 334 334 333 334 335 335 335 334 334 333 332 331 330 329 328 327 326 325 324 324 323 322 321 321 322 322 322 323 323 323 323 323 324 326 329 331 332 331
315 322 329 333 335 336 336 337 337 337 336 335 334 334 334 334 333 333 333 333 333 332 332 333 333 333 333 332 331 331 330 329 328 329 330 330 331 332 333 333 333 333 332 333 333 333 333 334 334 334 334 334 335 335 336 335 334 333 333 332 331 330 330 329 328 326 325 324 324 323 322 322 322 322 322 322 323 324 324 325 326 328 331 333 333 332 331
316 323 329 332 333 334 335 336 336 335 334 334 333 333 334 334 334 333 332 332 331 331 332 332 333 333 333 333 332 331 330 329 329 329 330 331 332 333 333 333 332 332 333 333 333 333 333 333 334 334 334 334 335 335 335 334 334 333 333 332 331 330 330 329 328 327 325 324 323 323 322 321 321 321 322 323 325 326 327 327 329 331 332 333 333 332 332
318 325 329 331 332 333 334 335 334 333 333 333 333 333 333 334 333 333 332 332 332 331 332 332 332 333 333 332 331 331 330 330 330 330 330 331 332 333 333 333 332 332 332 333 333 333 333 333 334 334 335 335 335 335 334 334 334 333 332 331 330 330 330 330 329 328 326 324 323 322 321 322 322 323 324 326 328 328 328 328 329 330 332 334 335 335 334
320 325 328 331 332 332 333 334 333 333 333 333 333 334 334 334 334 334 333 332 332 332 332 332 332 332 332 331 331 331 331 331 331 331 331 330 331 332 333 333 332 332 332 333 333 333 333 333 334 335 335 336 335 335 334 334 334 333 332 331 331 331 331 331 330 328 326 324 323 323 323 324 324 325 326 328 329 329 328 328 328 329 332 336 337 338 337
320 325 328 330 331 331 332 332 333 333 334 334 334 335 335 334 334 334 333 332 332 332 332 332 332 331 331 331 331 332 332 331 331 331 330 330 331 332 333 333 333 332 332 332 333 333 333 334 335 335 336 336 336 335 335 335 334 333 333 332 332 331 331 330 330 329 328 326 324 324 324 325 325 326 327 328 329 329 329 329 328 329 332 337 339 339 339
319 324 328 328 329 330 331 332 333 334 335 335 335 335 335 334 334 333 333 333 333 332 332 332 331 331 331 331 331 331 332 331 330 330 330 330 331 332 332 333 333 333 333 333 333 334 335 335 336 336 337 337 337 336 336 335 334 333 333 333 332 332 331 330 330 330 328 327 325 326 326 326 326 327 327 329 330 331 331 331 330 330 333 337 339 339 339
318 323 325 326 327 329 330 332 333 334 335 336 336 335 335 334 333 333 333 333 333 333 332 332 331 331 331 331 331 331 331 330 330 329 329 330 331 332 332 333 333 334 333 333 334 335 336 337 337 337 338 338 337 337 336 335 334 334 334 334 333 333 332 330 329 328 328 327 326 326 327 327 327 328 328 330 332 332 332 332 333 333 334 337 339 339 338
317 321 322 324 326 328 329 331 332 333 334 336 336 335 334 333 333 333 333 333 333 333 333 332 331 331 331 331 331 331 330 330 330 329 329 330 332 332 332 333 334 334 334 334 335 336 337 338 338 338 338 338 338 337 336 335 335 335 335 335 334 333 332 330 328 327 327 327 327 328 328 329 330 330 330 332 334 334 333 334 334 334 335 337 338 338 338
315 318 320 322 324 326 328 329 331 332 334 335 335 334 333 333 333 334 334 334 334 333 333 332 331 331 331 330 330 330 330 330 330 330 330 331 332 333 332 333 334 335 335 336 337 338 338 338 338 338 339 339 338 337 336 336 336 336 335 335 335 333 332 330 328 327 327 328 329 329 330 331 331 332 332 333 336 336 334 334 335 335 336 337 338 338 338
313 315 318 320 323 324 326 327 329 331 333 334 334 333 333 333 334 334 334 334 334 333 332 332 331 331 331 330 328 328 329 329 330 330 330 331 332 333 333 333 334 335 336 337 338 338 338 338 338 339 340 339 337 337 337 337 337 336 336 336 335 333 332 331 330 329 329 329 330 330 331 331 332 331 331 333 336 338 337 336 336 336 337 338 339 338 338
310 314 317 319 321 323 324 326 328 330 332 333 333 333 333 333 334 334 334 334 333 332 332 332 331 331 330 329 328 328 328 328 330 331 331 332 332 333 333 333 334 336 337 338 338 338 338 338 339 340 340 339 338 337 337 337 337 336 336 336 335 334 333 333 332 331 330 330 330 331 332 332 332 331 330 331 334 337 338 338 338 338 338 339 339 339 340
310 313 316 318 320 322 323 325 327 329 331 333 333 332 332 333 333 334 333 333 332 332 332 331 331 330 329 328 329 328 327 328 330 331 332 332 332 333 333 333 335 336 338 338 339 338 338 339 340 340 340 339 338 338 338 337 337 336 337 337 337 336 336 335 334 332 332 332 332 333 334 334 333 332 331 331 333 335 336 337 338 338 339 339 339 340 341
310 313 316 318 320 321 322 324 326 328 331 332 332 331 331 332 333 333 333 332 332 332 331 330 329 329 328 328 328 328 327 328 330 331 331 332 332 333 334 334 335 337 339 339 338 338 338 339 340 340 339 339 338 338 338 337 336 337 338 339 339 338 337 336 335 334 334 333 334 335 335 335 334 333 332 331 333 334 336 337 338 339 340 340 341 342 343
310 313 316 318 320 321 322 323 326 328 330 331 331 330 330 331 331 331 332 332 331 331 330 329 328 328 328 328 328 327 327 328 329 330 331 331 332 333 334 335 336 338 338 338 338 338 339 339 339 340 340 339 338 338 338 337 337 338 340 340 340 339 338 337 336 336 335 335 336 336 336 336 336 335 335 334 334 336 338 339 340 340 341 342 343 344 344
310 313 316 317 319 320 321 322 325 328 329 330 330 329 329 330 330 330 331 331 330 330 329 328 327 327 327 327 327 326 327 328 329 330 331 332 332 333 334 335 337 338 338 337 337 338 339 339 339 340 339 338 338 338 338 338 338 340 341 341 341 340 339 338 338 337 337 337 337 337 337 337 337 337 338 338 338 338 340 341 342 342 342 344 345 346 346
310 313 315 316 318 319 321 322 324 326 328 329 329 328 328 328 329 330 330 330 329 328 327 326 326 327 327 326 326 326 327 328 329 329 330 332 332 333 334 335 336 337 337 337 337 338 339 339 339 339 338 337 337 338 338 339 340 341 341 342 342 341 340 339 339 338 337 338 339 338 338 338 339 339 340 341 341 340 341 342 342 342 343 345 346 346 346
310 312 314 315 317 319 320 321 323 325 327 328 328 328 327 328 328 329 330 329 328 327 326 325 326 326 326 325 325 326 327 328 328 329 330 331 332 333 334 335 336 336 337 337 337 338 338 339 339 339 338 337 338 339 339 341 342 342 342 342 342 342 340 340 340 339 338 338 339 339 338 338 340 340 341 342 343 343 342 342 341 341 342 344 345 345 346
310 312 313 314 316 318 319 321 323 325 326 327 327 327 327 327 328 329 328 327 327 326 325 324 325 325 325 325 325 325 326 328 328 329 330 330 332 333 334 335 336 336 337 337 337 337 338 339 339 339 338 338 339 339 340 342 343 344 343 343 342 342 341 340 340 340 339 338 339 339 338 339 340 341 342 343 344 343 342 341 340 340 341 342 343 343 344
309 311 312 313 315 317 319 320 322 324 326 326 326 326 326 327 328 328 327 326 325 324 324 323 324 324 324 324 324 325 326 328 328 329 329 330 332 333 334 335 336 336 336 337 337 337 338 338 339 338 338 339 339 340 341 342 344 344 344 343 342 342 341 341 340 340 339 339 338 338 338 339 340 341 342 344 344 342 340 339 340 340 340 341 341 342 342
308 309 311 313 315 316 318 320 322 324 325 325 325 325 325 326 327 326 325 324 324 323 323 323 324 323 323 323 324 325 327 328 328 329 329 330 332 333 334 335 335 336 336 337 336 336 337 338 338 338 338 339 340 340 341 343 345 345 345 344 342 342 341 341 340 340 340 339 338 338 339 339 340 341 342 342 341 341 341 340 340 340 340 339 339 340 341
306 308 310 312 314 315 317 319 321 323 324 324 324 324 325 325 325 325 324 323 322 322 322 323 323 322 322 322 324 325 327 328 328 328 329 330 331 332 333 334 335 335 336 336 336 336 337 338 337 337 339 340 340 341 342 343 345 345 345 344 342 341 341 341 340 340 340 339 338 338 339 339 339 339 339 339 339 341 342 342 340 340 339 339 339 341 342
305 308 310 312 313 315 317 319 320 321 322 322 322 323 324 324 324 323 322 321 321 321 322 323 322 321 321 322 324 325 327 328 328 328 328 329 331 332 333 334 334 334 335 336 336 337 337 337 337 337 339 340 341 341 343 344 345 345 346 345 343 341 341 342 341 340 339 339 339 339 339 339 337 337 337 337 339 341 342 341 340 340 340 340 341 342 343
305 307 309 311 312 315 317 318 319 320 320 320 321 322 322 322 322 321 320 320 320 321 322 322 321 320 320 322 324 325 326 327 327 327 328 329 330 331 332 334 334 334 334 335 336 337 338 337 337 337 339 340 341 342 343 344 344 345 346 346 344 342 342 342 341 339 339 340 339 338 338 337 336 336 337 339 341 341 340 340 342 343 342 341 342 343 342
Height
5852 5853 5853 5853 5853 5853 5853 5853 5853 5853 5853 5852 5852 5851 5851 5850 5849 5848 5847 5846 5845 5844 5843 5841 5840 5839 5838 5837 5836 5835 5834 5833 5831 5830 5828 5826 5824 5822 5820 5818 5815 5812 5810 5807 5804 5801 5798 5796 5792 5789 5786 5783 5780 5777 5774 5771 5768 5765 5762 5758 5753 5749 5746 5744 5741 5737 5734 5731 5727 5724 5721 5716 5712 5708 5703 5699 5694 5690 5685 5680 5676 5675 5672 5667 5661 5657 5656
5854 5854 5854 5854 5854 5854 5854 5854 5854 5854 5853 5853 5852 5852 5851 5850 5849 5848 5847 5846 5845 5843 5842 5841 5840 5839 5838 5837 5836 5835 5834 5833 5831 5830 5828 5825 5823 5821 5818 5816 5813 5810 5807 5805 5802 5799 5796 5793 5791 5787 5784 5781 5778 5775 5772 5769 5766 5763 5760 5756 5752 5747 5743 5739 5735 5732 5730 5728 5725 5722 5719 5716 5711 5706 5700 5696 5692 5687 5683 5679 5673 5671 5668 5663 5657 5652 5651
5855 5855 5855 5855 5855 5855 5855 5855 5855 5854 5854 5853 5852 5852 5851 5850 5849 5848 5847 5845 5844 5843 5842 5842 5841 5840 5839 5838 5837 5835 5834 5833 5831 5829 5827 5824 5822 5819 5817 5814 5811 5808 5805 5802 5799 5797 5794 5791 5788 5785 5782 5779 5776 5773 5770 5767 5764 5760 5757 5754 5750 5746 5741 5737 5732 5726 5722 5720 5716 5713 5712 5711 5709 5704 5698 5692 5689 5684 5680 5675 5669 5665 5663 5661 5654 5646 5644
5856 5856 5856 5856 5856 5856 5856 5856 5855 5855 5854 5853 5852 5852 5851 5850 5848 5847 5846 5845 5844 5844 5843 5842 5842 5841 5840 5838 5837 5835 5834 5832 5830 5828 5825 5823 5820 5818 5815 5812 5809 5806 5804 5801 5798 5795 5792 5789 5786 5783 5780 5776 5774 5771 5768 5765 5762 5759 5755 5752 5749 5745 5741 5737 5732 5727 5722 5718 5715 5710 5707 5704 5703 5701 5697 5690 5685 5681 5677 5672 5666 5660 5656 5656 5653 5643 5637
5857 5857 5857 5857 5857 5857 5856 5856 5855 5855 5854 5853 5852 5851 5850 5849 5849 5848 5847 5846 5845 5845 5844 5843 5842 5841 5840 5838 5837 5835 5833 5831 5829 5826 5824 5821 5818 5816 5813 5810 5807 5805 5802 5799 5796 5793 5789 5786 5783 5780 5777 5774 5771 5769 5766 5763 5759 5756 5753 5750 5746 5743 5740 5737 5733 5728 5723 5718 5714 5710 5706 5702 5699 5696 5693 5688 5682 5678 5674 5669 5662 5655 5649 5647 5648 5642 5634
5858 5858 5858 5858 5858 5857 5857 5856 5856 5855 5854 5853 5852 5851 5851 5850 5849 5848 5847 5847 5846 5845 5844 5843 5842 5841 5839 5838 5836 5834 5832 5829 5827 5824 5822 5819 5817 5814 5811 5808 5805 5802 5800 5797 5794 5791 5788 5785 5781 5778 5776 5773 5770 5767 5764 5760 5757 5753 5749 5746 5744 5740 5737 5734 5731 5727 5722 5717 5712 5708 5704 5700 5696 5692 5688 5683 5678 5673 5669 5665 5659 5652 5644 5640 5638 5635 5631
5859 5859 5859 5858 5858 5858 5857 5856 5855 5855 5854 5853 5853 5852 5851 5850 5850 5849 5848 5847 5847 5846 5845 5844 5842 5841 5839 5837 5835 5833 5830 5828 5825 5823 5820 5817 5814 5812 5808 5805 5803 5800 5797 5794 5791 5789 5786 5784 5780 5777 5774 5771 5768 5765 5761 5758 5754 5750 5747 5743 5740 5737 5734 5730 5727 5725 5721 5715 5709 5705 5700 5696 5693 5689 5684 5678 5673 5669 5664 5659 5654 5647 5640 5635 5631 5626 5624
5859 5859 5859 5859 5858 5857 5857 5856 5855 5855 5854 5854 5853 5852 5852 5851 5850 5849 5849 5848 5847 5846 5845 5844 5842 5840 5838 5836 5834 5831 5829 5826 5823 5821 5818 5815 5812 5809 5806 5803 5800 5797 5794 5791 5788 5785 5783 5781 5778 5775 5772 5768 5765 5762 5759 5755 5751 5748 5744 5740 5737 5734 5730 5726 5721 5720 5719 5713 5706 5700 5695 5690 5687 5684 5680 5673 5667 5664 5659 5653 5647 5640 5633 5631 5625 5618 5615
5859 5859 5859 5858 5858 5857 5857 5856 5856 5855 5855 5854 5853 5853 5852 5852 5851 5850 5850 5849 5848 5846 5845 5843 5841 5839 5837 5834 5832 5829 5826 5824 5821 5818 5816 5813 5810 5807 5804 5801 5798 5795 5792 5789 5787 5784 5781 5778 5775 5772 5769 5766 5762 5759 5756 5753 5749 5745 5741 5737 5733 5729 5726 5722 5716 5714 5713 5709 5703 5697 5693 5689 5684 5679 5674 5667 5661 5657 5653 5648 5642 5634 5626 5623 5618 5611 5607
5859 5859 5859 5859 5858 5858 5858 5857 5857 5856 5855 5854 5854 5854 5853 5853 5852 5851 5850 5849 5847 5845 5844 5842 5840 5837 5835 5832 5830 5827 5824 5822 5819 5816 5813 5811 5808 5805 5802 5799 5797 5794 5791 5789 5786 5782 5779 5776 5773 5770 5767 5763 5760 5756 5753 5749 5746 5742 5738 5734 5729 5725 5721 5716 5711 5707 5706 5703 5697 5693 5689 5685 5681 5676 5667 5660 5655 5651 5646 5643 5639 5632 5623 5615 5609 5603 5599
5860 5859 5859 5859 5859 5858 5858 5857 5857 5856 5855 5855 5855 5855 5854 5853 5852 5851 5849 5848 5846 5844 5842 5840 5838 5836 5833 5830 5828 5825 5822 5820 5817 5814 5811 5809 5806 5803 5801 5798 5796 5793 5791 5788 5784 5781 5778 5775 5771 5768 5764 5761 5758 5754 5750 5746 5742 5738 5734 5730 5726 5721 5715 5711 5705 5700 5698 5696 5691 5688 5685 5680 5676 5671 5663 5655 5650 5645 5640 5637 5633 5628 5620 5611 5602 5597 5593
5860 5860 5860 5859 5859 5859 5858 5858 5857 5857 5856 5856 5856 5855 5854 5853 5852 5850 5848 5847 5845 5843 5841 5839 5836 5834 5831 5829 5826 5823 5821 5818 5815 5813 5810 5807 5805 5802 5800 5797 5794 5792 5789 5786 5782 5779 5776 5773 5769 5766 5763 5759 5756 5752 5748 5744 5740 5736 5731 5726 5721 5717 5711 5706 5701 5695 5691 5688 5683 5678 5677 5675 5670 5664 5658 5651 5645 5638 5633 5630 5627 5622 5613 5604 5595 5590 5585
5860 5860 5860 5860 5860 5859 5859 5859 5858 5858 5857 5857 5856 5855 5854 5852 5851 5849 5847 5845 5843 5842 5839 5837 5835 5832 5829 5827 5824 5822 5819 5816 5813 5811 5808 5806 5803 5801 5799 5796 5793 5790 5786 5783 5780 5777 5774 5771 5768 5765 5762 5758 5754 5751 5746 5742 5737 5733 5728 5722 5717 5712 5707 5702 5697 5691 5685 5682 5678 5671 5668 5669 5666 5657 5650 5644 5638 5631 5624 5620 5619 5614 5604 5594 5587 5581 5575
5861 5861 5860 5860 5860 5860 5859 5859 5859 5858 5857 5857 5855 5854 5853 5851 5849 5848 5846 5844 5842 5840 5838 5835 5833 5831 5828 5826 5823 5820 5817 5815 5812 5810 5807 5805 5802 5799 5797 5793 5790 5787 5784 5781 5778 5775 5772 5769 5766 5764 5760 5756 5752 5748 5744 5739 5735 5730 5724 5719 5714 5709 5703 5697 5692 5687 5680 5674 5671 5667 5661 5660 5657 5648 5640 5635 5630 5623 5614 5608 5607 5602 5594 5585 5578 5570 5564
5861 5861 5861 5861 5861 5860 5860 5859 5859 5858 5857 5856 5855 5853 5852 5850 5848 5846 5845 5843 5841 5839 5837 5834 5832 5830 5827 5824 5821 5818 5816 5813 5811 5808 5806 5803 5800 5797 5794 5791 5787 5784 5781 5778 5775 5772 5769 5766 5762 5759 5755 5751 5747 5743 5739 5736 5732 5727 5720 5715 5711 5705 5700 5693 5687 5683 5677 5669 5662 5657 5652 5649 5646 5639 5632 5627 5623 5617 5608 5600 5596 5591 5584 5577 5569 5560 5554
5862 5862 5862 5861 5861 5861 5860 5859 5859 5858 5856 5855 5854 5852 5850 5849 5847 5845 5843 5841 5839 5837 5835 5833 5831 5828 5826 5823 5820 5817 5814 5811 5809 5806 5804 5801 5798 5794 5791 5788 5785 5782 5779 5776 5773 5769 5766 5762 5758 5755 5750 5746 5741 5738 5734 5731 5727 5723 5717 5711 5707 5701 5696 5690 5683 5678 5673 5665 5657 5650 5644 5639 5635 5630 5624 5620 5615 5608 5599 5591 5585 5582 5576 5569 5561 5553 5544
5862 5862 5862 5862 5861 5861 5860 5859 5858 5857 5856 5854 5852 5851 5849 5847 5846 5844 5842 5840 5838 5836 5834 5832 5829 5827 5824 5821 5818 5815 5813 5810 5807 5805 5802 5799 5795 5792 5789 5786 5783 5780 5777 5774 5770 5767 5763 5760 5756 5752 5748 5743 5738 5734 5730 5725 5720 5717 5711 5705 5701 5696 5690 5685 5680 5673 5668 5661 5653 5647 5640 5632 5626 5620 5614 5610 5606 5599 5589 5578 5572 5568 5564 5557 5549 5541 5533
5862 5862 5862 5862 5861 5861 5860 5859 5857 5856 5854 5853 5851 5850 5848 5846 5844 5842 5841 5839 5837 5835 5833 5831 5828 5825 5822 5819 5816 5814 5811 5808 5806 5803 5800 5797 5794 5791 5787 5784 5781 5778 5775 5771 5768 5764 5761 5757 5753 5749 5744 5740 5735 5731 5726 5720 5715 5710 5705 5700 5696 5691 5685 5680 5675 5669 5663 5655 5647 5641 5635 5626 5619 5612 5605 5600 5596 5590 5581 5572 5562 5555 5549 5542 5535 5529 5523
5863 5863 5862 5862 5861 5860 5859 5858 5856 5855 5853 5852 5850 5849 5847 5845 5843 5841 5840 5838 5836 5834 5832 5829 5826 5823 5821 5818 5815 5813 5810 5807 5805 5802 5799 5796 5793 5789 5786 5782 5779 5775 5772 5768 5765 5761 5758 5754 5749 5744 5740 5735 5731 5727 5723 5717 5710 5704 5699 5694 5690 5685 5679 5674 5668 5662 5656 5650 5641 5634 5628 5623 5616 5608 5600 5594 5589 5580 5571 5564 5556 5548 5540 5532 5527 5522 5515
5863 5863 5862 5862 5861 5859 5858 5857 5855 5854 5852 5851 5849 5847 5845 5843 5842 5840 5838 5837 5835 5833 5830 5827 5824 5821 5819 5816 5814 5811 5809 5806 5803 5800 5797 5794 5790 5787 5783 5780 5777 5773 5769 5765 5762 5758 5754 5750 5745 5740 5735 5730 5726 5722 5719 5716 5711 5703 5696 5690 5685 5679 5673 5669 5664 5656 5649 5643 5636 5626 5617 5612 5606 5599 5591 5585 5579 5569 5558 5551 5546 5540 5533 5525 5519 5513 5505
5863 5862 5862 5861 5860 5858 5857 5855 5854 5853 5851 5849 5848 5846 5844 5842 5840 5839 5837 5835 5833 5831 5828 5825 5823 5820 5817 5815 5812 5810 5807 5804 5801 5798 5794 5791 5788 5784 5780 5776 5773 5769 5765 5761 5757 5753 5750 5746 5741 5736 5731 5726 5722 5717 5712 5709 5708 5703 5695 5688 5683 5677 5670 5664 5660 5654 5645 5637 5631 5622 5613 5605 5598 5590 5582 5575 5569 5562 5552 5542 5535 5529 5523 5514 5506 5498 5491
5862 5862 5861 5860 5858 5857 5856 5854 5853 5851 5849 5848 5846 5844 5842 5840 5838 5837 5835 5833 5831 5829 5826 5823 5821 5818 5816 5813 5810 5808 5805 5802 5799 5796 5792 5788 5785 5781 5777 5772 5768 5765 5761 5757 5753 5749 5745 5741 5737 5732 5728 5722 5718 5715 5709 5702 5699 5696 5692 5686 5679 5674 5667 5659 5654 5650 5644 5635 5628 5620 5613 5605 5597 5588 5579 5570 5563 5557 5549 5539 5529 5520 5512 5503 5492 5483 5475
5861 5861 5860 5859 5857 5856 5854 5853 5851 5850 5848 5846 5844 5842 5840 5838 5836 5835 5833 5831 5829 5826 5824 5821 5819 5816 5814 5811 5809 5806 5803 5799 5796 5793 5789 5785 5781 5778 5774 5770 5765 5761 5757 5753 5749 5745 5741 5737 5732 5728 5724 5718 5713 5710 5706 5700 5695 5690 5686 5682 5676 5669 5663 5656 5649 5644 5640 5635 5628 5620 5613 5605 5597 5590 5581 5570 5560 5552 5542 5531 5521 5510 5501 5492 5482 5472 5463
5861 5860 5859 5858 5856 5855 5853 5852 5850 5849 5847 5845 5843 5841 5838 5837 5835 5833 5831 5829 5827 5824 5822 5819 5817 5814 5812 5809 5806 5803 5800 5796 5793 5790 5786 5783 5779 5775 5771 5767 5763 5759 5754 5750 5746 5742 5738 5733 5729 5725 5721 5716 5710 5705 5699 5694 5690 5684 5679 5676 5673 5666 5660 5654 5647 5640 5632 5626 5621 5614 5607 5599 5588 5578 5571 5562 5552 5544 5534 5522 5510 5499 5489 5480 5471 5462 5453
5860 5859 5858 5857 5855 5854 5852 5851 5849 5847 5845 5843 5841 5839 5837 5835 5833 5831 5829 5827 5825 5822 5820 5817 5815 5812 5809 5807 5804 5800 5797 5793 5790 5787 5783 5779 5775 5771 5768 5764 5760 5756 5752 5747 5743 5739 5734 5729 5724 5720 5717 5713 5708 5703 5696 5689 5684 5678 5671 5666 5662 5658 5652 5646 5640 5634 5625 5617 5610 5603 5599 5594 5584 5571 5559 5548 5537 5529 5521 5511 5500 5489 5479 5470 5461 5452 5443
5859 5858 5857 5856 5854 5853 5852 5850 5848 5846 5844 5842 5840 5838 5836 5834 5832 5829 5827 5824 5823 5821 5818 5815 5812 5810 5807 5804 5801 5798 5794 5790 5787 5783 5779 5776 5772 5768 5765 5761 5757 5753 5749 5744 5740 5735 5731 5726 5721 5716 5712 5708 5704 5699 5694 5687 5680 5674 5668 5661 5653 5647 5642 5634 5627 5623 5617 5610 5602 5592 5584 5580 5575 5563 5549 5536 5523 5511 5503 5494 5485 5475 5465 5456 5448 5442 5435
5858 5857 5856 5855 5853 5852 5850 5849 5847 5845 5843 5840 5838 5836 5834 5832 5830 5827 5825 5823 5820 5818 5815 5813 5810 5807 5804 5801 5798 5795 5791 5788 5784 5780 5776 5773 5769 5765 5762 5759 5755 5751 5746 5742 5737 5733 5728 5723 5718 5713 5708 5704 5700 5695 5689 5684 5678 5671 5665 5659 5651 5642 5634 5626 5617 5610 5603 5595 5587 5575 5560 5550 5545 5537 5527 5517 5506 5494 5485 5477 5469 5460 5451 5443 5436 5431 5427
5857 5856 5855 5853 5852 5851 5849 5847 5845 5843 5841 5839 5837 5835 5832 5830 5828 5825 5823 5821 5818 5815 5813 5810 5807 5804 5801 5798 5795 5792 5788 5784 5780 5776 5773 5769 5766 5763 5759 5756 5752 5747 5743 5739 5735 5730 5725 5720 5715 5710 5704 5699 5695 5691 5685 5678 5671 5665 5658 5651 5644 5636 5626 5616 5605 5596 5588 5580 5573 5563 5549 5535 5526 5518 5509 5500 5492 5482 5474 5466 5458 5449 5442 5435 5429 5422 5417
5856 5855 5854 5852 5851 5849 5848 5846 5844 5841 5839 5837 5835 5833 5830 5828 5826 5823 5820 5818 5815 5813 5810 5807 5804 5801 5798 5795 5792 5789 5785 5781 5777 5773 5770 5766 5763 5760 5756 5752 5748 5744 5740 5735 5731 5726 5721 5716 5711 5705 5700 5694 5689 5685 5680 5672 5664 5658 5651 5644 5637 5629 5620 5610 5598 5586 5576 5569 5562 5554 5542 5527 5515 5506 5497 5489 5482 5474 5466 5459 5450 5442 5435 5430 5424 5417 5411
5855 5854 5852 5851 5850 5848 5846 5844 5842 5840 5838 5835 5833 5831 5828 5826 5823 5821 5818 5815 5812 5809 5806 5803 5800 5798 5795 5792 5788 5785 5782 5778 5774 5771 5767 5764 5760 5757 5753 5749 5745 5740 5736 5732 5727 5722 5717 5713 5708 5702 5696 5690 5683 5678 5673 5666 5659 5652 5646 5638 5630 5622 5614 5606 5595 5581 5569 5559 5551 5543 5532 5519 5508 5499 5492 5485 5477 5468 5458 5449 5441 5434 5428 5423 5418 5413 5407
5853 5852 5851 5850 5849 5847 5845 5843 5840 5838 5836 5834 5831 5829 5826 5823 5821 5818 5815 5812 5809 5806 5803 5800 5797 5794 5792 5789 5785 5782 5779 5775 5771 5768 5764 5761 5757 5753 5749 5745 5741 5736 5733 5728 5724 5719 5714 5709 5705 5699 5693 5687 5680 5674 5668 5661 5654 5647 5641 5634 5626 5618 5610 5601 5592 5579 5564 5551 5540 5532 5525 5516 5504 5493 5484 5476 5469 5459 5449 5440 5434 5428 5424 5419 5414 5408 5402
5852 5851 5850 5848 5847 5845 5843 5841 5839 5836 5834 5832 5829 5826 5824 5821 5818 5815 5812 5809 5806 5803 5800 5797 5794 5791 5788 5785 5782 5779 5776 5772 5768 5765 5761 5757 5754 5751 5747 5743 5737 5733 5729 5725 5720 5716 5711 5706 5701 5696 5689 5683 5676 5670 5663 5656 5649 5642 5635 5628 5620 5613 5605 5595 5584 5572 5559 5546 5532 5519 5511 5504 5495 5482 5471 5464 5458 5451 5442 5435 5430 5425 5420 5416 5411 5405 5398
5850 5849 5848 5847 5845 5843 5841 5839 5837 5834 5832 5829 5827 5824 5821 5818 5815 5812 5809 5806 5803 5800 5797 5794 5791 5788 5785 5782 5779 5776 5773 5769 5766 5762 5758 5754 5751 5749 5745 5741 5736 5730 5726 5722 5717 5712 5707 5702 5696 5691 5685 5679 5672 5665 5658 5651 5643 5635 5628 5619 5611 5603 5595 5587 5577 5566 5554 5542 5529 5513 5498 5487 5479 5470 5462 5455 5450 5444 5436 5430 5424 5419 5415 5410 5405 5399 5392
5849 5848 5846 5845 5843 5841 5839 5837 5834 5832 5829 5827 5824 5821 5818 5815 5812 5809 5806 5803 5800 5797 5794 5791 5788 5785 5782 5778 5775 5772 5769 5765 5762 5760 5756 5751 5748 5745 5742 5738 5734 5729 5724 5719 5714 5709 5703 5698 5692 5686 5680 5674 5666 5659 5652 5645 5637 5629 5620 5611 5602 5594 5586 5578 5570 5560 5546 5533 5521 5508 5494 5481 5470 5462 5455 5449 5444 5438 5431 5425 5418 5412 5407 5403 5398 5391 5385
5847 5846 5844 5842 5841 5839 5837 5834 5832 5829 5827 5824 5821 5818 5815 5812 5809 5806 5803 5800 5796 5793 5790 5787 5784 5781 5778 5775 5771 5768 5765 5762 5758 5755 5752 5749 5745 5742 5738 5734 5730 5726 5721 5716 5711 5705 5699 5693 5687 5680 5674 5667 5660 5652 5645 5638 5631 5623 5614 5604 5594 5584 5573 5562 5553 5544 5533 5520 5508 5498 5487 5476 5465 5455 5449 5443 5438 5432 5425 5420 5413 5406 5400 5395 5391 5385 5379
5844 5843 5842 5840 5838 5836 5834 5832 5829 5827 5824 5821 5818 5815 5812 5809 5806 5803 5800 5796 5793 5790 5786 5783 5780 5777 5774 5771 5769 5765 5762 5759 5755 5751 5747 5744 5742 5738 5734 5731 5727 5722 5717 5712 5706 5701 5695 5689 5682 5675 5668 5661 5654 5646 5639 5631 5624 5616 5607 5597 5586 5574 5561 5548 5537 5527 5518 5509 5499 5489 5479 5469 5459 5449 5441 5436 5432 5426 5420 5414 5408 5401 5395 5389 5384 5379 5374
5842 5841 5839 5837 5836 5834 5832 5829 5827 5824 5821 5818 5815 5812 5809 5806 5803 5800 5797 5793 5790 5786 5783 5779 5776 5773 5769 5766 5764 5761 5758 5754 5751 5747 5744 5740 5737 5734 5729 5726 5722 5718 5713 5707 5701 5696 5690 5683 5677 5671 5664 5657 5649 5641 5633 5625 5616 5608 5598 5588 5577 5565 5553 5541 5528 5516 5506 5498 5490 5480 5470 5460 5451 5441 5433 5428 5424 5419 5413 5408 5402 5396 5390 5384 5379 5374 5369
5839 5838 5836 5835 5833 5831 5829 5826 5824 5821 5818 5816 5812 5809 5806 5803 5800 5796 5793 5790 5786 5782 5779 5775 5772 5769 5765 5762 5758 5756 5753 5750 5746 5742 5739 5736 5733 5729 5724 5720 5716 5712 5707 5702 5696 5690 5685 5678 5672 5666 5660 5652 5645 5637 5628 5620 5611 5601 5591 5581 5569 5557 5545 5533 5521 5508 5496 5485 5475 5465 5456 5447 5440 5433 5427 5422 5418 5414 5409 5403 5398 5393 5387 5382 5376 5370 5365
5836 5835 5833 5832 5830 5828 5826 5823 5821 5818 5815 5812 5809 5806 5803 5800 5796 5792 5789 5786 5782 5779 5775 5772 5769 5765 5762 5759 5754 5750 5748 5745 5742 5739 5734 5730 5727 5723 5718 5714 5710 5705 5700 5695 5689 5684 5678 5672 5666 5660 5653 5646 5638 5630 5622 5613 5604 5595 5585 5575 5564 5552 5541 5530 5518 5505 5492 5479 5467 5458 5449 5441 5433 5426 5420 5416 5412 5409 5405 5400 5395 5389 5384 5379 5373 5367 5361
5833 5832 5830 5829 5827 5825 5822 5820 5817 5814 5812 5809 5806 5803 5799 5796 5793 5789 5785 5782 5778 5775 5771 5768 5765 5761 5758 5755 5752 5747 5743 5740 5738 5735 5731 5726 5722 5717 5712 5707 5703 5699 5694 5688 5682 5676 5670 5665 5659 5652 5646 5639 5631 5623 5615 5606 5597 5588 5579 5570 5560 5548 5536 5525 5513 5501 5488 5477 5467 5458 5449 5441 5432 5424 5417 5412 5407 5403 5399 5395 5390 5385 5380 5375 5370 5364 5358
5830 5829 5827 5825 5823 5821 5819 5816 5814 5811 5808 5805 5802 5799 5796 5792 5789 5785 5782 5778 5774 5771 5768 5764 5761 5758 5754 5750 5747 5744 5740 5736 5733 5730 5727 5722 5718 5714 5709 5703 5698 5693 5688 5681 5675 5669 5663 5658 5652 5646 5639 5632 5624 5616 5608 5599 5589 5581 5573 5564 5553 5541 5529 5517 5507 5495 5482 5470 5460 5452 5445 5438 5430 5423 5416 5410 5406 5400 5395 5390 5386 5381 5376 5371 5365 5360 5356
5827 5826 5824 5822 5820 5818 5815 5813 5810 5807 5805 5802 5799 5795 5792 5789 5785 5781 5778 5774 5770 5767 5763 5760 5756 5753 5750 5746 5742 5738 5735 5732 5729 5726 5722 5718 5714 5709 5705 5699 5693 5688 5683 5676 5670 5663 5657 5651 5646 5640 5633 5626 5617 5609 5600 5591 5582 5573 5566 5556 5545 5532 5520 5508 5497 5487 5476 5464 5454 5446 5439 5433 5427 5421 5415 5409 5404 5399 5394 5388 5382 5377 5372 5367 5362 5357 5352
5824 5823 5821 5819 5817 5814 5811 5809 5807 5804 5801 5798 5795 5791 5788 5785 5781 5777 5773 5770 5766 5762 5759 5755 5751 5748 5745 5741 5738 5733 5730 5727 5724 5721 5717 5713 5708 5704 5700 5695 5689 5684 5679 5672 5665 5659 5652 5645 5639 5632 5626 5619 5611 5603 5595 5586 5576 5568 5559 5549 5537 5524 5512 5501 5489 5478 5468 5459 5450 5442 5435 5429 5424 5419 5413 5408 5402 5396 5392 5387 5381 5374 5369 5364 5359 5354 5349
5821 5819 5817 5815 5813 5811 5808 5805 5803 5800 5797 5794 5791 5788 5784 5781 5777 5773 5770 5766 5762 5759 5755 5751 5747 5744 5740 5737 5733 5729 5726 5722 5719 5715 5712 5708 5703 5697 5693 5689 5684 5680 5675 5668 5661 5655 5649 5642 5634 5628 5621 5614 5607 5600 5591 5580 5569 5558 5549 5540 5529 5516 5503 5492 5481 5470 5460 5452 5445 5437 5431 5425 5420 5415 5411 5406 5400 5393 5387 5383 5378 5372 5367 5362 5357 5352 5346
5817 5816 5814 5811 5809 5807 5804 5801 5799 5796 5793 5790 5787 5783 5780 5776 5773 5769 5766 5762 5758 5754 5750 5747 5743 5740 5736 5732 5729 5725 5722 5718 5714 5710 5707 5703 5698 5693 5687 5683 5678 5674 5669 5663 5657 5651 5645 5639 5631 5624 5617 5609 5601 5593 5583 5572 5560 5548 5537 5528 5518 5506 5493 5481 5472 5461 5451 5444 5438 5431 5425 5420 5415 5410 5406 5402 5397 5391 5384 5378 5373 5368 5364 5359 5355 5350 5345
5814 5812 5810 5807 5805 5803 5800 5797 5795 5792 5789 5786 5782 5779 5775 5772 5768 5765 5761 5758 5754 5750 5746 5742 5739 5736 5732 5727 5724 5720 5717 5714 5710 5706 5701 5697 5693 5688 5683 5677 5672 5666 5661 5656 5649 5643 5638 5633 5626 5618 5610 5601 5593 5584 5574 5564 5553 5542 5529 5517 5506 5495 5483 5473 5464 5455 5445 5438 5433 5427 5421 5416 5412 5406 5401 5397 5393 5388 5381 5375 5370 5365 5360 5356 5351 5346 5342
5810 5808 5806 5803 5801 5799 5796 5794 5791 5788 5785 5781 5778 5774 5771 5767 5764 5761 5757 5753 5749 5746 5742 5738 5734 5731 5728 5724 5719 5716 5712 5709 5705 5701 5696 5692 5688 5683 5679 5673 5667 5660 5653 5647 5642 5636 5630 5624 5618 5611 5602 5593 5584 5574 5565 5556 5546 5535 5522 5509 5497 5486 5475 5466 5457 5449 5440 5433 5428 5422 5417 5413 5408 5403 5398 5393 5389 5384 5379 5373 5368 5363 5358 5354 5348 5343 5338
5806 5804 5802 5799 5796 5794 5792 5789 5786 5783 5780 5777 5773 5770 5766 5763 5760 5756 5753 5749 5745 5741 5738 5734 5730 5727 5724 5720 5716 5712 5708 5705 5700 5696 5691 5686 5683 5679 5674 5669 5664 5658 5650 5643 5636 5629 5623 5617 5611 5605 5596 5587 5576 5566 5556 5548 5538 5527 5515 5502 5490 5478 5468 5459 5452 5444 5436 5429 5424 5419 5413 5409 5405 5400 5395 5390 5385 5381 5376 5371 5365 5360 5355 5351 5345 5340 5335
5802 5800 5797 5795 5792 5790 5787 5785 5782 5779 5776 5772 5768 5765 5762 5759 5756 5752 5748 5744 5741 5737 5733 5730 5727 5723 5719 5715 5712 5709 5705 5700 5696 5691 5685 5681 5677 5672 5668 5662 5657 5653 5647 5640 5632 5625 5618 5611 5604 5598 5591 5581 5571 5560 5550 5541 5532 5522 5509 5496 5483 5472 5463 5454 5446 5439 5433 5426 5420 5415 5410 5405 5400 5395 5391 5386 5382 5378 5374 5368 5363 5358 5353 5347 5343 5338 5334
5798 5795 5793 5791 5788 5786 5783 5780 5777 5774 5771 5767 5764 5761 5757 5754 5751 5747 5743 5739 5736 5732 5729 5725 5722 5718 5714 5710 5707 5704 5701 5696 5691 5685 5681 5677 5672 5668 5663 5657 5651 5646 5642 5636 5629 5621 5612 5604 5597 5590 5584 5575 5565 5554 5544 5534 5525 5516 5504 5491 5478 5467 5458 5450 5442 5435 5430 5424 5418 5412 5407 5402 5396 5391 5387 5382 5378 5374 5370 5366 5360 5356 5351 5345 5340 5335 5331
5793 5791 5789 5786 5784 5781 5778 5776 5773 5769 5766 5762 5759 5756 5753 5750 5746 5742 5738 5735 5731 5728 5724 5721 5717 5713 5709 5706 5703 5699 5696 5692 5687 5681 5676 5672 5668 5663 5659 5654 5647 5641 5636 5632 5626 5618 5609 5600 5592 5584 5577 5568 5558 5548 5537 5527 5518 5509 5500 5488 5474 5462 5454 5446 5439 5432 5426 5422 5416 5410 5405 5400 5395 5389 5385 5380 5375 5370 5367 5363 5359 5353 5348 5342 5337 5332 5327
5788 5786 5784 5782 5779 5776 5774 5771 5768 5764 5761 5758 5755 5752 5749 5745 5741 5738 5734 5730 5727 5723 5719 5716 5711 5707 5703 5701 5698 5694 5690 5686 5682 5677 5672 5667 5664 5659 5655 5650 5644 5636 5629 5624 5620 5613 5605 5596 5588 5580 5570 5560 5550 5540 5530 5520 5512 5504 5496 5485 5472 5459 5449 5442 5436 5429 5424 5419 5414 5408 5404 5399 5394 5388 5383 5378 5372 5367 5363 5359 5356 5351 5345 5340 5335 5330 5325